EW3716 Weather Reports


time (UTC)temp
C
wind
direction
speed
KPH
gust
KPH
rain 1hr
cm
rain 24hr
cm
rain mn
cm
humidity
%
barometer
mb
20260507023054 9 273 0.0 0.0 0.00 0.00 0.00 39 1011.6
20260507022551 9 291 0.0 0.0 0.00 0.00 0.00 38 1011.8
20260507022046 10 269 0.0 0.0 0.00 0.00 0.00 37 1011.8
20260507021543 10 290 1.6 3.2 0.00 0.00 0.00 36 1011.6
20260507021039 10 306 3.2 3.2 0.00 0.00 0.00 35 1011.7
20260507020537 10 193 3.2 3.2 0.00 0.00 0.00 36 1011.6
20260507020033 10 89 1.6 3.2 0.00 0.00 0.00 36 1011.7
20260507015532 10 232 1.6 1.6 0.00 0.00 0.00 34 1011.8
20260507015029 10 240 0.0 0.0 0.00 0.00 0.00 34 1011.7
20260507014525 10 261 0.0 0.0 0.00 0.00 0.00 35 1011.8
20260507014021 11 265 0.0 0.0 0.00 0.00 0.00 34 1011.7
20260507013518 11 251 0.0 0.0 0.00 0.00 0.00 33 1011.8
20260507013015 11 251 0.0 1.6 0.00 0.00 0.00 32 1012.0
20260507012512 11 237 1.6 1.6 0.00 0.00 0.00 33 1011.7
20260507012008 11 187 1.6 3.2 0.00 0.00 0.00 34 1011.8
20260507011506 11 254 1.6 1.6 0.00 0.00 0.00 33 1011.8
20260507011002 11 189 0.0 1.6 0.00 0.00 0.00 33 1011.8
20260507010456 11 162 1.6 1.6 0.00 0.00 0.00 32 1011.7
20260507005953 11 253 1.6 1.6 0.00 0.00 0.00 32 1011.8
20260507005451 11 197 1.6 1.6 0.00 0.00 0.00 32 1011.8
20260507004947 11 227 1.6 3.2 0.00 0.00 0.00 32 1011.8
20260507004444 11 219 1.6 3.2 0.00 0.00 0.00 32 1011.8
20260507003942 11 232 3.2 4.8 0.00 0.00 0.00 32 1011.9
20260507003436 12 256 1.6 3.2 0.00 0.00 0.00 32 1011.7
20260507002931 11 205 3.2 3.2 0.00 0.00 0.00 31 1012.0
20260507002428 12 192 3.2 3.2 0.00 0.00 0.00 32 1011.8
20260507001925 12 188 4.8 6.4 0.00 0.00 0.00 31 1012.0
20260507001422 12 265 0.0 1.6 0.00 0.00 0.00 31 1012.0
20260507000920 12 276 6.4 9.7 0.00 0.00 0.00 32 1012.1
20260507000415 12 240 3.2 3.2 0.00 0.00 0.00 32 1012.1
20260506235911 12 194 1.6 3.2 0.00 0.00 0.00 32 1012.2
20260506235409 12 165 0.0 1.6 0.00 0.00 0.00 31 1012.2
20260506234903 12 239 3.2 3.2 0.00 0.00 0.00 30 1012.1
20260506234402 12 229 3.2 3.2 0.00 0.00 0.00 32 1012.3
20260506233859 12 188 1.6 3.2 0.00 0.00 0.00 31 1012.2
20260506233355 12 199 3.2 3.2 0.00 0.00 0.00 31 1012.3
20260506232852 13 219 1.6 3.2 0.00 0.00 0.00 30 1012.3
20260506232348 13 82 3.2 4.8 0.00 0.00 0.00 30 1012.3
20260506231844 12 201 1.6 3.2 0.00 0.00 0.00 31 1012.3
20260506231342 12 190 3.2 4.8 0.00 0.00 0.00 30 1012.5
20260506230839 12 222 4.8 9.7 0.00 0.00 0.00 31 1012.3
20260506230336 12 223 4.8 6.4 0.00 0.00 0.00 30 1012.6
20260506225832 13 210 4.8 6.4 0.00 0.00 0.00 29 1012.3
20260506225330 12 180 3.2 4.8 0.00 0.00 0.00 30 1012.6
20260506224826 12 202 1.6 1.6 0.00 0.00 0.00 31 1012.5
20260506224324 12 184 6.4 11.3 0.00 0.00 0.00 29 1012.5
20260506223820 12 160 3.2 3.2 0.00 0.00 0.00 32 1012.7
20260506223314 12 268 8.0 11.3 0.00 0.00 0.00 31 1012.8
20260506222812 12 182 1.6 3.2 0.00 0.00 0.00 32 1012.6
20260506222308 12 165 6.4 12.9 0.00 0.00 0.00 31 1012.8
20260506221806 13 162 4.8 4.8 0.00 0.00 0.00 30 1012.6
20260506221303 13 312 0.0 1.6 0.00 0.00 0.00 30 1012.7
20260506220802 12 171 3.2 4.8 0.00 0.00 0.00 31 1012.8
20260506220301 12 119 4.8 6.4 0.00 0.00 0.00 31 1012.9
20260506215758 12 89 4.8 4.8 0.00 0.00 0.00 30 1012.8
20260506215254 12 234 1.6 3.2 0.00 0.00 0.00 31 1013.1
20260506214750 12 214 4.8 9.7 0.00 0.00 0.00 31 1012.9
20260506214248 12 205 0.0 0.0 0.00 0.00 0.00 31 1013.1
20260506213746 12 268 3.2 3.2 0.00 0.00 0.00 33 1013.2
20260506213243 12 177 3.2 6.4 0.00 0.00 0.00 32 1013.3
20260506212740 12 141 6.4 9.7 0.00 0.00 0.00 33 1013.3
20260506212236 12 342 8.0 11.3 0.00 0.00 0.00 32 1013.2
20260506211731 12 210 4.8 6.4 0.00 0.00 0.00 33 1013.4
20260506211227 12 274 3.2 3.2 0.00 0.00 0.00 36 1013.5
20260506210725 12 214 6.4 9.7 0.00 0.00 0.00 33 1013.4
20260506210222 11 130 8.0 11.3 0.00 0.00 0.00 33 1013.6
20260506205719 11 244 3.2 4.8 0.00 0.00 0.00 34 1013.6
20260506205214 12 175 11.3 17.7 0.00 0.00 0.00 33 1013.5
20260506204711 12 246 1.6 3.2 0.00 0.00 0.00 38 1013.7
20260506204208 12 222 3.2 4.8 0.00 0.00 0.00 35 1013.7
20260506203707 11 163 3.2 3.2 0.00 0.00 0.00 36 1013.8
20260506203203 11 224 1.6 3.2 0.00 0.00 0.00 35 1013.9
20260506202701 11 197 3.2 4.8 0.00 0.00 0.00 36 1013.9
20260506202156 11 217 4.8 6.4 0.00 0.00 0.00 36 1013.9
20260506201654 11 212 1.6 3.2 0.00 0.00 0.00 36 1013.9
20260506201150 11 177 1.6 3.2 0.00 0.00 0.00 35 1013.9
20260506200647 12 198 0.0 1.6 0.00 0.00 0.00 35 1014.0
20260506200144 11 135 1.6 3.2 0.00 0.00 0.00 35 1014.0
20260506195641 12 227 1.6 3.2 0.00 0.00 0.00 35 1014.1
20260506195137 12 264 1.6 3.2 0.00 0.00 0.00 35 1014.2
20260506194635 12 241 4.8 6.4 0.00 0.00 0.00 37 1014.2
20260506194130 11 230 0.0 0.0 0.00 0.00 0.00 36 1014.4
20260506193629 11 129 9.7 11.3 0.00 0.00 0.00 35 1014.3
20260506193125 11 160 4.8 6.4 0.00 0.00 0.00 35 1014.3
20260506192622 11 182 6.4 6.4 0.00 0.00 0.00 35 1014.4
20260506192118 11 78 3.2 3.2 0.00 0.00 0.00 36 1014.4
20260506191615 10 231 1.6 1.6 0.00 0.00 0.00 36 1014.5
20260506191111 11 199 6.4 9.7 0.00 0.00 0.00 36 1014.6
20260506190609 11 179 4.8 6.4 0.00 0.00 0.00 35 1014.6
20260506190105 11 232 3.2 3.2 0.00 0.00 0.00 34 1014.7
20260506185603 11 252 4.8 4.8 0.00 0.00 0.00 36 1014.6
20260506185059 11 275 4.8 6.4 0.00 0.00 0.00 37 1014.5
20260506184556 11 140 3.2 4.8 0.00 0.00 0.00 36 1014.7
20260506184054 10 14 8.0 12.9 0.00 0.00 0.00 35 1014.7
20260506183549 10 175 4.8 4.8 0.00 0.00 0.00 36 1014.9
20260506183046 11 147 3.2 9.7 0.00 0.00 0.00 38 1014.7
20260506182543 10 241 3.2 4.8 0.00 0.00 0.00 39 1015.0
20260506182041 11 209 6.4 6.4 0.00 0.00 0.00 39 1015.1
20260506181538 10 159 8.0 14.5 0.00 0.00 0.00 37 1015.0
20260506181035 10 182 6.4 9.7 0.00 0.00 0.00 38 1015.2
20260506180531 11 295 8.0 11.3 0.00 0.00 0.00 39 1015.2
20260506180028 11 128 14.5 22.5 0.00 0.00 0.00 37 1015.4
20260506175525 11 112 3.2 4.8 0.00 0.00 0.00 38 1015.4
20260506175021 10 157 12.9 17.7 0.00 0.00 0.00 37 1015.4
20260506174520 10 251 3.2 3.2 0.00 0.00 0.00 41 1015.4
20260506174015 10 257 9.7 12.9 0.00 0.00 0.00 38 1015.6
20260506173513 10 198 8.0 11.3 0.00 0.00 0.00 38 1015.4
20260506173010 10 54 12.9 16.1 0.00 0.00 0.00 38 1015.4
20260506172508 10 163 3.2 4.8 0.00 0.00 0.00 40 1015.6
20260506172003 9 179 1.6 3.2 0.00 0.00 0.00 39 1015.6
20260506171501 9 196 3.2 4.8 0.00 0.00 0.00 40 1015.8
20260506170959 9 173 3.2 3.2 0.00 0.00 0.00 45 1015.6
20260506170455 9 283 1.6 3.2 0.00 0.00 0.00 41 1015.6
20260506165953 8 216 3.2 4.8 0.00 0.00 0.00 40 1015.7
20260506165452 10 236 3.2 4.8 0.00 0.00 0.00 39 1015.7
20260506164947 9 207 3.2 4.8 0.00 0.00 0.00 40 1015.6
20260506164444 9 198 3.2 4.8 0.00 0.00 0.00 41 1015.8
20260506163942 9 260 11.3 12.9 0.00 0.00 0.00 41 1016.0
20260506163437 9 254 4.8 4.8 0.00 0.00 0.00 42 1015.9
20260506162932 8 222 3.2 3.2 0.00 0.00 0.00 43 1015.9
20260506162430 9 191 4.8 6.4 0.00 0.00 0.00 43 1015.8
20260506161928 8 247 3.2 3.2 0.00 0.00 0.00 44 1015.9
20260506161426 8 262 8.0 9.7 0.00 0.00 0.00 43 1015.8
20260506160923 8 241 4.8 6.4 0.00 0.00 0.00 44 1015.9
20260506160420 9 245 3.2 4.8 0.00 0.00 0.00 44 1015.8
20260506155918 8 240 3.2 4.8 0.00 0.00 0.00 44 1016.0
20260506155415 8 255 3.2 4.8 0.00 0.00 0.00 46 1015.9
20260506153536 8 286 1.6 1.6 0.00 0.00 0.00 45 1015.9
20260506153034 8 246 4.8 6.4 0.00 0.00 0.00 46 1016.1
20260506152531 7 254 3.2 4.8 0.00 0.00 0.00 47 1016.1
20260506152029 7 94 1.6 3.2 0.00 0.00 0.00 46 1016.2
20260506151526 8 274 1.6 1.6 0.00 0.00 0.00 49 1016.1
20260506151023 7 198 0.0 1.6 0.00 0.00 0.00 49 1016.0
20260506150519 7 205 4.8 6.4 0.00 0.00 0.00 47 1016.2
20260506150017 7 331 1.6 3.2 0.00 0.00 0.00 49 1016.1
20260506145513 7 238 0.0 1.6 0.00 0.00 0.00 48 1016.1
20260506145011 7 161 1.6 4.8 0.00 0.00 0.00 48 1016.4
20260506144507 7 254 1.6 3.2 0.00 0.00 0.00 50 1016.2
20260506144005 7 243 0.0 0.0 0.00 0.00 0.00 49 1016.2
20260506143502 6 240 0.0 1.6 0.00 0.00 0.00 52 1016.2
20260506143001 6 220 1.6 1.6 0.00 0.00 0.00 50 1016.2
20260506142458 6 235 1.6 1.6 0.00 0.00 0.00 52 1016.1
20260506141955 6 260 1.6 3.2 0.00 0.00 0.00 51 1016.1
20260506141453 6 235 3.2 4.8 0.00 0.00 0.00 51 1016.4
20260506140952 6 220 3.2 3.2 0.00 0.00 0.00 52 1016.3
20260506140448 5 175 1.6 3.2 0.00 0.00 0.00 53 1016.2
20260506135945 5 300 0.0 1.6 0.00 0.00 0.00 53 1016.2
20260506135442 5 253 1.6 1.6 0.00 0.00 0.00 52 1016.3
20260506134938 5 261 0.0 1.6 0.00 0.00 0.00 53 1016.2
20260506134434 5 208 3.2 4.8 0.00 0.00 0.00 54 1016.3
20260506133931 5 164 3.2 3.2 0.00 0.00 0.00 56 1016.2
20260506133429 5 242 1.6 1.6 0.00 0.00 0.00 56 1016.2
20260506132925 4 253 0.0 0.0 0.00 0.00 0.00 60 1016.1
20260506132422 3 204 1.6 1.6 0.00 0.00 0.00 59 1016.1
20260506131920 3 240 1.6 3.2 0.00 0.00 0.00 62 1016.1
20260506131416 3 234 0.0 0.0 0.00 0.00 0.00 64 1016.0
20260506130913 3 260 0.0 0.0 0.00 0.00 0.00 65 1015.9
20260506130409 2 257 0.0 1.6 0.00 0.00 0.00 67 1015.9
20260506125908 2 267 1.6 1.6 0.00 0.00 0.00 69 1015.8
20260506125406 1 259 0.0 0.0 0.00 0.00 0.00 71 1015.8
20260506124904 1 256 0.0 0.0 0.00 0.00 0.00 72 1015.7
20260506124401 1 257 0.0 0.0 0.00 0.00 0.00 75 1015.9
20260506123858 0 258 0.0 0.0 0.00 0.00 0.00 76 1015.6
20260506123356 0 258 0.0 0.0 0.00 0.00 0.00 77 1015.8
20260506122854 0 258 0.0 0.0 0.00 0.00 0.00 78 1015.7
20260506122350 0 257 0.0 1.6 0.00 0.00 0.00 79 1015.6
20260506121849 0 266 0.0 0.0 0.00 0.00 0.00 80 1015.6
20260506121345 0 266 0.0 0.0 0.00 0.00 0.00 81 1015.5
20260506120842 -1 265 0.0 0.0 0.00 0.00 0.00 83 1015.5
20260506120340 -1 265 0.0 0.0 0.00 0.00 0.00 83 1015.5
20260506115837 -1 265 0.0 0.0 0.00 0.00 0.00 83 1015.3
20260506115335 -1 265 0.0 0.0 0.00 0.00 0.00 83 1015.2
20260506114833 -1 264 0.0 0.0 0.00 0.00 0.00 84 1015.2
20260506114330 -1 266 0.0 0.0 0.00 0.00 0.00 84 1015.1
20260506113829 -1 262 0.0 0.0 0.00 0.00 0.00 84 1015.2
20260506113326 -1 266 0.0 0.0 0.00 0.00 0.00 83 1014.9
20260506112823 -1 268 0.0 0.0 0.00 0.00 0.00 82 1014.9
20260506112320 -1 268 0.0 0.0 0.00 0.00 0.00 83 1014.9
20260506111817 -1 268 0.0 0.0 0.00 0.00 0.00 84 1014.9
20260506111315 -2 265 0.0 0.0 0.00 0.00 0.00 85 1014.7
20260506110812 -2 264 0.0 0.0 0.00 0.00 0.00 84 1014.6
20260506110309 -2 264 0.0 0.0 0.00 0.00 0.00 83 1014.6
20260506105806 -2 264 0.0 0.0 0.00 0.00 0.00 82 1014.9
20260506105305 -1 261 0.0 0.0 0.00 0.00 0.00 81 1014.5
20260506104800 -1 261 0.0 0.0 0.00 0.00 0.00 80 1014.4
20260506104258 -1 261 0.0 0.0 0.00 0.00 0.00 80 1014.5
20260506103755 -1 262 0.0 0.0 0.00 0.00 0.00 80 1014.6
20260506103253 -1 261 0.0 0.0 0.00 0.00 0.00 79 1014.3
20260506102750 -1 261 0.0 0.0 0.00 0.00 0.00 78 1014.3
20260506102248 -1 264 0.0 0.0 0.00 0.00 0.00 79 1014.5
20260506101745 -1 266 0.0 0.0 0.00 0.00 0.00 78 1014.3
20260506101241 0 266 0.0 0.0 0.00 0.00 0.00 77 1014.3
20260506100739 -1 267 0.0 0.0 0.00 0.00 0.00 77 1014.2
20260506100237 -1 267 0.0 0.0 0.00 0.00 0.00 77 1014.2
20260506095735 -1 267 0.0 0.0 0.00 0.00 0.00 76 1014.4
20260506095232 0 267 0.0 0.0 0.00 0.00 0.00 76 1014.4
20260506094728 0 271 0.0 0.0 0.00 0.00 0.00 76 1014.3
20260506094227 0 272 0.0 0.0 0.00 0.00 0.00 77 1014.1
20260506093725 -1 264 0.0 0.0 0.00 0.00 0.00 77 1014.2
20260506093222 0 263 0.0 0.0 0.00 0.00 0.00 76 1013.8
20260506092720 -1 263 0.0 0.0 0.00 0.00 0.00 77 1013.9
20260506092217 0 263 0.0 0.0 0.00 0.00 0.00 76 1014.1
20260506091715 0 263 0.0 0.0 0.00 0.00 0.00 75 1014.1
20260506091212 0 262 0.0 0.0 0.00 0.00 0.00 75 1014.2
20260506090710 0 260 0.0 0.0 0.00 0.00 0.00 74 1014.0
20260506090206 0 260 0.0 0.0 0.00 0.00 0.00 75 1014.0
20260506085703 0 261 0.0 0.0 0.00 0.00 0.00 75 1013.9
20260506085159 0 261 0.0 0.0 0.00 0.00 0.00 75 1014.0
20260506084656 0 256 0.0 0.0 0.00 0.00 0.00 75 1014.0
20260506084152 0 261 0.0 0.0 0.00 0.00 0.00 75 1013.9
20260506083649 0 262 0.0 0.0 0.00 0.00 0.00 75 1013.8
20260506083147 0 261 0.0 0.0 0.00 0.00 0.00 74 1013.9
20260506082644 0 261 0.0 0.0 0.00 0.00 0.00 72 1013.8
20260506082144 0 261 0.0 0.0 0.00 0.00 0.00 72 1013.8
20260506081643 0 261 0.0 0.0 0.00 0.00 0.00 71 1013.8
20260506081141 0 261 0.0 0.0 0.00 0.00 0.00 70 1013.5
20260506080638 0 261 0.0 0.0 0.00 0.00 0.00 70 1013.4
20260506080134 0 260 0.0 0.0 0.00 0.00 0.00 69 1013.6
20260506073119 0 266 0.0 0.0 0.00 0.00 0.00 71 1013.3
20260506072615 0 270 0.0 0.0 0.00 0.00 0.00 71 1013.2
20260506072113 0 270 0.0 0.0 0.00 0.00 0.00 70 1013.2
20260506071610 1 271 0.0 0.0 0.00 0.00 0.00 69 1013.2
20260506071108 1 277 0.0 0.0 0.00 0.00 0.00 69 1013.3
20260506070605 0 269 0.0 0.0 0.00 0.00 0.00 69 1013.6
20260506062039 1 269 0.0 0.0 0.00 0.00 0.00 65 1013.5
20260506061535 1 269 0.0 0.0 0.00 0.00 0.00 65 1013.6
20260506061032 1 278 0.0 0.0 0.00 0.00 0.00 64 1013.6
20260506060531 1 266 0.0 0.0 0.00 0.00 0.00 64 1013.5
20260506050959 2 254 1.6 1.6 0.00 0.00 0.00 58 1012.9
20260506050457 3 250 0.0 0.0 0.00 0.00 0.00 58 1012.8
20260506044948 3 248 0.0 1.6 0.00 0.00 0.00 56 1013.1
20260506044446 3 251 0.0 1.6 0.00 0.00 0.00 56 1013.1
20260506043942 3 236 0.0 1.6 0.00 0.00 0.00 56 1013.1
20260506043440 3 257 1.6 1.6 0.00 0.00 0.00 56 1013.1
20260506042937 4 260 0.0 1.6 0.00 0.00 0.00 55 1013.2
20260506042437 4 262 0.0 1.6 0.00 0.00 0.00 55 1013.2
20260506041934 4 243 3.2 3.2 0.00 0.00 0.00 54 1013.1
20260506041432 4 233 1.6 1.6 0.00 0.00 0.00 53 1013.1
20260506040929 4 249 1.6 1.6 0.00 0.00 0.00 54 1013.1
20260506040426 4 246 0.0 1.6 0.00 0.00 0.00 54 1013.4
20260506035922 3 243 0.0 0.0 0.00 0.00 0.00 53 1013.2
20260506035420 3 250 0.0 1.6 0.00 0.00 0.00 55 1013.2
20260506034917 3 251 0.0 0.0 0.00 0.00 0.00 57 1013.2
20260506034414 2 261 0.0 0.0 0.00 0.00 0.00 59 1013.2
20260506033911 3 259 0.0 0.0 0.00 0.00 0.00 58 1013.1
20260506033408 3 260 0.0 0.0 0.00 0.00 0.00 56 1013.2
20260506032905 3 260 0.0 0.0 0.00 0.00 0.00 55 1013.0
20260506032402 4 254 0.0 0.0 0.00 0.00 0.00 53 1012.9
20260506031858 5 250 0.0 0.0 0.00 0.00 0.00 52 1013.0
20260506031356 5 254 0.0 0.0 0.00 0.00 0.00 51 1013.0
20260506030853 5 259 0.0 0.0 0.00 0.00 0.00 51 1012.9
20260506030351 5 247 0.0 1.6 0.00 0.00 0.00 50 1013.0
20260506025848 5 255 0.0 0.0 0.00 0.00 0.00 50 1012.8
20260506025344 5 263 1.6 1.6 0.00 0.00 0.00 50 1012.8
20260506024841 5 249 0.0 0.0 0.00 0.00 0.00 50 1012.9
20260506024338 5 248 0.0 0.0 0.00 0.00 0.00 49 1012.7
20260506023834 5 241 1.6 1.6 0.00 0.00 0.00 48 1012.5